• In Russia
  • List of Countries
  • For 7 days
  • Water Temperature
  • Satellite Maps
  • Weather Map
  • Weather Widgets
  • user-avatar
    Login

    Hourly Weather Alytus

    Today, 24 February, Sunday

    Time Temperature Precipitation Wind Pressure Humidity
    00:00 -5°C° 0 mm 5 mps 769 mmHg 46%
    01:00 -4°C° 0 mm 5 mps 768 mmHg 49%
    02:00 -4°C° 0 mm 5 mps 768 mmHg 51%
    03:00 -3°C° 0 mm 4 mps 768 mmHg 56%
    04:00 -3°C° 0 mm 4 mps 767 mmHg 61%
    05:00 -2°C° 0 mm 3 mps 767 mmHg 65%
    06:00 -2°C° 0 mm 3 mps 767 mmHg 68%
    07:00 -2°C° 0 mm 3 mps 767 mmHg 70%
    08:00 -2°C° 0 mm 2 mps 767 mmHg 73%
    09:00 -1°C° 0 mm 2 mps 766 mmHg 73%
    10:00 -1°C° 0 mm 3 mps 766 mmHg 73%
    11:00 0°C° 0 mm 3 mps 766 mmHg 73%
    12:00 +1°C° 0 mm 3 mps 766 mmHg 71%
    13:00 +2°C° 0 mm 3 mps 766 mmHg 70%
    14:00 +3°C° 0 mm 4 mps 765 mmHg 68%
    15:00 +3°C° 0 mm 4 mps 765 mmHg 71%
    16:00 +1°C° 0 mm 4 mps 765 mmHg 74%
    17:00 +2°C° 0 mm 3 mps 764 mmHg 77%
    18:00 +1°C° 0 mm 3 mps 764 mmHg 82%
    19:00 0°C° 0 mm 4 mps 764 mmHg 86%
    20:00 -1°C° 0 mm 4 mps 764 mmHg 90%
    21:00 -1°C° 0 mm 4 mps 764 mmHg 91%
    22:00 -1°C° 0 mm 4 mps 763 mmHg 91%
    23:00 -1°C° 0 mm 4 mps 763 mmHg 92%

    Tomorrow, 25 February, Monday

    Time Temperature Precipitation Wind Pressure Humidity
    00:00 -2°C° 0 mm 4 mps 763 mmHg 93%
    01:00 -1°C° 0 mm 3 mps 763 mmHg 94%
    02:00 -1°C° 0 mm 3 mps 763 mmHg 95%
    03:00 -1°C° 0 mm 3 mps 763 mmHg 95%
    04:00 -1°C° 0 mm 3 mps 763 mmHg 95%
    05:00 -1°C° 0 mm 3 mps 763 mmHg 95%
    06:00 -1°C° 0 mm 3 mps 763 mmHg 93%
    07:00 -1°C° 0 mm 3 mps 763 mmHg 91%
    08:00 -1°C° 0 mm 3 mps 763 mmHg 89%
    09:00 0°C° 0 mm 4 mps 763 mmHg 82%
    10:00 +3°C° 0 mm 4 mps 763 mmHg 75%
    11:00 +3°C° 0 mm 5 mps 763 mmHg 68%
    12:00 +4°C° 0 mm 6 mps 762 mmHg 68%
    13:00 +5°C° 0 mm 6 mps 762 mmHg 67%
    14:00 +6°C° 0 mm 7 mps 761 mmHg 67%
    15:00 +5°C° 0 mm 6 mps 761 mmHg 72%
    16:00 +4°C° 0 mm 6 mps 761 mmHg 77%
    17:00 +3°C° 0 mm 5 mps 761 mmHg 81%
    18:00 +2°C° 0 mm 5 mps 761 mmHg 83%
    19:00 +1°C° 0 mm 5 mps 762 mmHg 84%
    20:00 0°C° 0 mm 5 mps 762 mmHg 85%
    21:00 0°C° 0 mm 5 mps 762 mmHg 86%
    22:00 -1°C° 0 mm 4 mps 761 mmHg 87%
    23:00 -1°C° 0 mm 4 mps 761 mmHg 87%

    Day after tomorrow, 26 February, Tuesday

    Time Temperature Precipitation Wind Pressure Humidity
    00:00 -1°C° 0 mm 4 mps 761 mmHg 87%
    01:00 -1°C° 0 mm 4 mps 761 mmHg 87%
    02:00 -2°C° 0 mm 4 mps 761 mmHg 86%
    03:00 -2°C° 0 mm 4 mps 761 mmHg 86%
    04:00 -1°C° 0 mm 4 mps 760 mmHg 85%
    05:00 -1°C° 0 mm 4 mps 760 mmHg 85%
    06:00 -1°C° 0 mm 4 mps 759 mmHg 85%
    07:00 -1°C° 0 mm 4 mps 759 mmHg 85%
    08:00 -1°C° 0 mm 4 mps 759 mmHg 85%
    09:00 0°C° 0 mm 5 mps 758 mmHg 78%
    10:00 +2°C° 0 mm 6 mps 758 mmHg 70%
    11:00 +4°C° 0 mm 7 mps 757 mmHg 62%
    12:00 +4°C° 0 mm 7 mps 757 mmHg 62%
    13:00 +5°C° 0 mm 7 mps 757 mmHg 62%
    14:00 +6°C° 0 mm 7 mps 757 mmHg 62%
    15:00 +6°C° 0 mm 7 mps 757 mmHg 63%
    16:00 +5°C° 0 mm 6 mps 758 mmHg 63%
    17:00 +5°C° 0 mm 5 mps 758 mmHg 64%
    18:00 +3°C° 0 mm 5 mps 758 mmHg 68%
    19:00 +2°C° 0 mm 5 mps 759 mmHg 73%
    20:00 +1°C° 0 mm 4 mps 760 mmHg 77%
    21:00 +1°C° 0 mm 4 mps 760 mmHg 80%
    22:00 +1°C° 0 mm 3 mps 760 mmHg 84%
    23:00 +1°C° 0 mm 3 mps 761 mmHg 87%

    27 February, Wednesday

    Time Temperature Precipitation Wind Pressure Humidity
    00:00 0°C° 0 mm 3 mps 761 mmHg 89%
    01:00 0°C° 0 mm 3 mps 761 mmHg 91%
    02:00 -1°C° 0 mm 2 mps 761 mmHg 93%
    03:00 -1°C° 0 mm 2 mps 761 mmHg 94%
    04:00 -1°C° 0 mm 2 mps 761 mmHg 94%
    05:00 -1°C° 0 mm 2 mps 761 mmHg 95%
    06:00 -1°C° 0 mm 2 mps 761 mmHg 95%
    07:00 -1°C° 0 mm 2 mps 761 mmHg 94%
    08:00 -1°C° 0 mm 2 mps 760 mmHg 94%
    09:00 +2°C° 0 mm 2 mps 760 mmHg 85%
    10:00 +3°C° 0 mm 2 mps 760 mmHg 77%
    11:00 +5°C° 0 mm 2 mps 760 mmHg 68%
    12:00 +6°C° 0 mm 2 mps 759 mmHg 64%
    13:00 +7°C° 0 mm 3 mps 758 mmHg 60%
    14:00 +8°C° 0 mm 3 mps 757 mmHg 56%
    15:00 +7°C° 0 mm 3 mps 757 mmHg 59%
    16:00 +7°C° 0 mm 3 mps 756 mmHg 62%
    17:00 +7°C° 0 mm 3 mps 756 mmHg 65%
    18:00 +5°C° 0 mm 3 mps 755 mmHg 73%
    19:00 +3°C° 0 mm 3 mps 755 mmHg 81%
    20:00 +2°C° 0 mm 3 mps 754 mmHg 90%
    21:00 +2°C° 0 mm 3 mps 754 mmHg 92%
    22:00 +2°C° 0 mm 2 mps 754 mmHg 94%
    23:00 +2°C° 0 mm 2 mps 753 mmHg 96%

    28 February, Thursday

    Time Temperature Precipitation Wind Pressure Humidity
    00:00 +2°C° 0 mm 2 mps 753 mmHg 96%
    01:00 +2°C° 0 mm 2 mps 752 mmHg 95%
    02:00 +1°C° 0 mm 3 mps 752 mmHg 95%
    03:00 +1°C° 0 mm 3 mps 751 mmHg 95%
    04:00 +1°C° 0 mm 3 mps 750 mmHg 95%
    05:00 +1°C° 0 mm 3 mps 749 mmHg 94%
    06:00 +1°C° 0 mm 3 mps 749 mmHg 94%
    07:00 +2°C° 0 mm 3 mps 748 mmHg 94%
    08:00 +2°C° 0 mm 3 mps 747 mmHg 94%
    09:00 +1°C° 0 mm 4 mps 747 mmHg 91%
    10:00 +2°C° 0 mm 5 mps 746 mmHg 88%
    11:00 +3°C° 0 mm 6 mps 745 mmHg 85%
    12:00 +3°C° 0 mm 6 mps 745 mmHg 83%
    13:00 +3°C° 0 mm 7 mps 744 mmHg 82%
    14:00 +4°C° 0 mm 8 mps 744 mmHg 80%
    15:00 +3°C° 0.1 mm 7 mps 744 mmHg 80%
    16:00 +3°C° 0.1 mm 7 mps 744 mmHg 80%
    17:00 +2°C° 0.1 mm 7 mps 745 mmHg 80%
    18:00 +2°C° 0 mm 7 mps 745 mmHg 81%
    19:00 +1°C° 0 mm 6 mps 746 mmHg 83%
    20:00 +1°C° 0 mm 6 mps 746 mmHg 84%
    21:00 +1°C° 0 mm 6 mps 746 mmHg 80%
    22:00 -1°C° 0 mm 6 mps 747 mmHg 77%
    23:00 -1°C° 0 mm 6 mps 747 mmHg 73%

    1 March, Friday

    Time Temperature Precipitation Wind Pressure Humidity
    00:00 -1°C° 0 mm 6 mps 747 mmHg 74%
    01:00 -1°C° 0 mm 6 mps 747 mmHg 75%
    02:00 -1°C° 0 mm 6 mps 747 mmHg 77%
    03:00 -2°C° 0 mm 6 mps 747 mmHg 79%
    04:00 -2°C° 0 mm 6 mps 747 mmHg 81%
    05:00 -2°C° 0 mm 6 mps 748 mmHg 82%
    06:00 -2°C° 0 mm 6 mps 748 mmHg 83%
    07:00 -2°C° 0 mm 6 mps 748 mmHg 83%
    08:00 -2°C° 0 mm 6 mps 749 mmHg 84%
    09:00 -2°C° 0 mm 6 mps 749 mmHg 75%
    10:00 -1°C° 0 mm 7 mps 750 mmHg 66%
    11:00 0°C° 0 mm 7 mps 750 mmHg 58%
    12:00 0°C° 0 mm 7 mps 751 mmHg 53%
    13:00 0°C° 0 mm 7 mps 751 mmHg 48%
    14:00 +2°C° 0 mm 7 mps 751 mmHg 43%
    15:00 0°C° 0 mm 7 mps 752 mmHg 44%
    16:00 +1°C° 0 mm 6 mps 752 mmHg 46%
    17:00 +1°C° 0 mm 5 mps 753 mmHg 47%
    18:00 0°C° 0 mm 5 mps 753 mmHg 52%
    19:00 -1°C° 0 mm 4 mps 754 mmHg 56%
    20:00 -2°C° 0 mm 4 mps 754 mmHg 61%
    21:00 -3°C° 0 mm 4 mps 755 mmHg 61%
    22:00 -3°C° 0 mm 4 mps 755 mmHg 60%
    23:00 -4°C° 0 mm 4 mps 756 mmHg 60%
    Show more